DW4326 Weather Reports


Display with metric or nautical units.
time (UTC)temp
F
wind
direction
speed
MPH
gust
MPH
rain 1hr
in
rain 24hr
in
rain mn
in
humidity
%
barometer
mb
20260906163754 68 319 1.0 6.0 0.00 0.56 0.06 74 1016.2
20260906162251 68 333 1.0 7.0 0.00 0.56 0.06 74 1016.3
20260906160751 66 319 0.0 0.0 0.00 0.56 0.06 75 1016.4
20260906155251 66 259 0.0 0.0 0.00 0.56 0.06 79 1016.5
20260906153750 65 302 0.0 7.0 0.00 0.56 0.06 78 1016.7
20260906152249 63 350 0.0 5.0 0.00 0.56 0.06 86 1016.7
20260906150751 63 281 0.0 4.0 0.00 0.56 0.06 83 1016.5
20260906145251 63 319 0.0 5.0 0.00 0.57 0.06 84 1016.5
20260906143749 63 311 0.0 9.0 0.00 0.57 0.06 87 1016.4
20260906142248 62 20 1.0 9.0 0.00 0.57 0.06 90 1016.4
20260906140748 61 14 0.0 4.0 0.00 0.57 0.06 91 1016.3
20260906135249 61 127 0.0 1.0 0.00 0.57 0.06 96 1016.2
20260906134435 59 24 0.0 0.0 0.00 0.57 0.06 98 1016.0
20260906132244 59 5 0.0 0.0 0.00 0.57 0.06 97 1016.1
20260906130741 58 0 0.0 0.0 0.00 0.57 0.06 98 1016.1
20260906125241 58 0 0.0 0.0 0.00 0.57 0.06 98 1016.2
20260906124432 57 355 0.0 0.0 0.00 0.57 0.06 98 1016.2
20260906122240 57 355 0.0 0.0 0.00 0.57 0.06 98 1016.0
20260906121350 57 53 0.0 0.0 0.01 0.57 0.06 98 1015.7
20260906120756 57 53 0.0 0.0 0.00 0.57 0.06 98 1015.9
20260906113737 56 53 0.0 0.0 0.01 0.57 0.06 98 1015.7
20260906112236 56 53 0.0 0.0 0.01 0.57 0.06 98 1015.5
20260906111433 56 53 0.0 0.0 0.01 0.57 0.06 98 1015.4
20260906105231 56 53 0.0 0.0 0.00 0.56 0.05 98 1015.1
20260906104425 56 53 0.0 0.0 0.00 0.56 0.05 98 1015.1
20260906102928 56 53 0.0 0.0 0.00 0.56 0.05 98 1015.0
20260906101417 56 53 0.0 0.0 0.00 0.56 0.05 98 1014.9
20260906095925 56 53 0.0 0.0 0.00 0.56 0.05 98 1014.9
20260906095135 56 53 0.0 0.0 0.00 0.56 0.05 97 1014.8
20260906092225 56 53 0.0 0.0 0.00 0.56 0.05 97 1014.7
20260906091436 56 57 0.0 0.0 0.00 0.56 0.05 97 1014.3
20260906085224 57 57 0.0 0.0 0.00 0.56 0.05 97 1014.2
20260906083722 57 57 0.0 0.0 0.00 0.56 0.05 98 1014.2
20260906082221 57 57 0.0 0.0 0.01 0.56 0.05 97 1014.3
20260906081406 57 57 0.0 0.0 0.01 0.56 0.05 97 1014.0
20260906075218 57 57 0.0 0.0 0.02 0.56 0.05 97 1014.0
20260906074411 57 57 0.0 0.0 0.02 0.56 0.05 97 1014.0
20260906072213 57 57 0.0 0.0 0.02 0.55 0.04 97 1014.0
20260906070713 57 57 0.0 0.0 0.02 0.55 0.04 97 1014.0
20260906070617 57 57 0.0 0.0 0.02 0.54 0.03 97 1013.9
20260906063714 57 57 0.0 0.0 0.03 0.54 0.03 97 1014.0
20260906062214 57 57 0.0 0.0 0.02 0.53 0.02 97 1013.9
20260906060712 57 57 0.0 0.0 0.02 0.53 0.02 97 1013.9
20260906055214 58 57 0.0 0.0 0.01 0.52 0.02 97 1013.9
20260906053712 58 57 0.0 0.0 0.00 0.51 0.00 97 1013.9
20260906052906 58 57 0.0 0.0 0.00 0.51 0.00 97 1014.0
20260906051358 58 58 0.0 0.0 0.00 0.51 0.00 97 1014.0
20260906045923 58 58 0.0 0.0 0.01 0.51 0.00 97 1014.0
20260906043706 58 58 0.0 0.0 0.02 0.51 0.00 97 1013.9
20260906042206 58 58 0.0 0.0 0.04 0.51 0.00 97 1014.0
20260906040706 58 58 0.0 0.0 0.06 0.51 0.00 97 1014.3
20260906035202 58 58 0.0 0.0 0.13 0.50 0.50 97 1014.0
20260906034350 59 190 0.0 0.0 0.21 0.49 0.49 96 1014.1
20260906032159 59 190 0.0 0.0 0.25 0.47 0.48 96 1014.0
20260906030658 59 190 0.0 0.0 0.27 0.45 0.45 96 1013.9
20260906025156 59 190 0.0 0.0 0.20 0.37 0.37 96 1013.9
20260906023655 59 190 0.0 0.0 0.11 0.28 0.28 96 1013.9
20260906022152 60 190 0.0 0.0 0.05 0.22 0.22 96 1013.8
20260906020652 60 189 0.0 0.0 0.01 0.18 0.18 96 1013.7
20260906015153 60 298 0.0 0.0 0.00 0.17 0.17 96 1013.8
20260906014348 60 301 0.0 0.0 0.01 0.17 0.17 96 1013.5
20260906012150 61 301 0.0 0.0 0.02 0.17 0.17 96 1013.5
20260906010648 61 301 0.0 0.0 0.03 0.17 0.17 96 1013.4
20260906005148 61 301 0.0 0.0 0.03 0.17 0.17 95 1013.4
20260906003648 61 301 0.0 0.0 0.03 0.16 0.16 95 1013.4
20260906002145 62 301 0.0 0.0 0.09 0.15 0.15 94 1013.2
20260906000644 62 301 0.0 0.0 0.12 0.14 0.14 94 1013.3
20260905235144 62 301 0.0 0.0 0.12 0.15 0.14 94 1013.0
20260905233644 62 300 0.0 0.0 0.11 0.14 0.13 93 1012.7
20260905232142 63 313 0.0 0.0 0.04 0.07 0.07 92 1012.6
20260905230643 64 319 0.0 0.0 0.00 0.03 0.02 92 1012.1
20260905225142 64 319 0.0 0.0 0.00 0.03 0.02 92 1012.1
20260905223641 64 319 0.0 0.0 0.00 0.03 0.02 91 1012.1
20260905222140 65 319 0.0 0.0 0.01 0.03 0.02 91 1012.0
20260905221334 65 319 0.0 0.0 0.01 0.03 0.02 89 1011.8
20260905215140 66 319 0.0 0.0 0.01 0.03 0.02 87 1011.6
20260905213640 68 319 0.0 0.0 0.01 0.03 0.02 83 1011.5
20260905212139 69 321 0.0 0.0 0.00 0.02 0.01 77 1011.3
20260905210641 70 10 0.0 0.0 0.00 0.02 0.01 75 1011.0
20260905205138 70 309 0.0 0.0 0.00 0.02 0.01 76 1010.8
20260905203637 70 27 0.0 0.0 0.00 0.02 0.01 76 1010.8
20260905202137 69 28 0.0 0.0 0.00 0.02 0.01 75 1010.8
20260905200636 69 28 0.0 0.0 0.00 0.02 0.01 79 1010.8
20260905195137 69 9 0.0 0.0 0.00 0.02 0.01 75 1010.8
20260905193633 70 291 0.0 0.0 0.00 0.02 0.01 76 1010.8
20260905192133 70 306 0.0 0.0 0.00 0.02 0.01 76 1010.8
20260905190635 70 302 0.0 1.0 0.00 0.02 0.01 69 1010.9
20260905185131 71 26 0.0 6.0 0.00 0.02 0.01 67 1010.7
20260905184337 70 290 0.0 5.0 0.00 0.02 0.01 68 1010.7
20260905182132 71 297 0.0 0.0 0.00 0.02 0.01 70 1010.8
20260905180630 73 285 0.0 0.0 0.00 0.02 0.01 66 1010.7
20260905175129 74 47 0.0 1.0 0.00 0.02 0.01 68 1010.9
20260905173629 71 311 0.0 3.0 0.00 0.02 0.01 70 1010.8
20260905172131 70 355 0.0 3.0 0.00 0.02 0.01 72 1010.9
20260905170631 70 308 1.0 9.0 0.00 0.02 0.01 71 1010.9
20260905165826 69 306 0.0 3.0 0.00 0.02 0.01 70 1011.0
20260905164320 70 306 0.0 3.0 0.00 0.02 0.01 69 1011.2